Regional Weather Roundup
Issued by NWS Green Bay, WI

Home | Current Version | Previous Version | Text Only | Print | Product List | Glossary On
Versions: 1 2 3 4 5 6 7 8 9 10 11 12 13 14 15 16 17 18 19 20 21 22 23 24 25 26 27 28 29 30 31 32 33 34 35 36 37 38 39 40 41 42 43 44 45 46 47 48 49 50
000
ASUS43 KGRB 280910
RWRGRB

NORTH-CENTRAL AND NORTHEAST WISCONSIN REGIONAL WEATHER ROUNDUP
NATIONAL WEATHER SERVICE GREEN BAY WI
300 AM CST WED JAN 28 2015

WIZ005-009-010>012-018-019-281000-
NORTH CENTRAL WISCONSIN

CITY           SKY/WX    TMP DP  RH WIND       PRES   REMARKS
IRONWOOD       CLOUDY    25  21  86 S5        30.08F
MANITOWISH WTR CLOUDY    22  20  94 S6        30.10F
ARBOR VITAE    CLOUDY    23  21  91 S6        30.11F FOG
EAGLE RIVER    CLOUDY    22  19  87 S5        30.11F
LAND O LAKES   CLOUDY    22  21  93 S3        30.12S
RHINELANDER    CLOUDY    22  20  92 S7        30.13S FOG
PHILLIPS       CLOUDY    23  21  93 S9        30.11F FOG
ANTIGO         CLOUDY    21  18  89 S7        30.15F
TOMAHAWK       CLOUDY    22  21  96 CALM      30.14S FOG
MERRILL        CLOUDY    24  22  93 S3        30.15S
$$

WIZ013-073-281000-
NORTHEAST WISCONSIN

CITY           SKY/WX    TMP DP  RH WIND       PRES   REMARKS
IRON MOUNTAIN  CLOUDY    22  17  81 S6        30.17S
MARINETTE      MOCLDY    18  12  79 S3        30.23F
OCONTO         CLOUDY    14  13  96 CALM      30.25R
$$

WIZ017-030-035>037-045-281000-
CENTRAL WISCONSIN

CITY           SKY/WX    TMP DP  RH WIND       PRES   REMARKS
MEDFORD        CLOUDY    23  21  93 S8        30.13F FOG
WAUSAU         CLOUDY    23  19  85 SE8       30.15F
MOSINEE        CLOUDY    23  21  93 SE7       30.17F
MARSHFIELD     CLOUDY    24  21  88 S6        30.15F FOG
WISC RAPIDS    CLOUDY    24  20  84 S5        30.20R
STEVENS POINT  CLOUDY    23  18  81 SE3       30.18S
WAUPACA        CLOUDY    25  19  78 E5        30.22F
SHAWANO        CLOUDY    25  18  76 CALM      30.23S
CLINTONVILLE   CLOUDY    23  18  80 SE5       30.22F
$$

WIZ038-039-048-051-281000-
FOX VALLEY

CITY           SKY/WX    TMP DP  RH WIND       PRES   REMARKS
NWS GREEN BAY  MOCLDY    16  13  88 S3        30.24F
APPLETON       MOCLDY    21  16  79 SE6       30.23F
OSHKOSH        PTCLDY    19  14  81 S6        30.23F
FOND DU LAC    PTCLDY    21  15  78 S5        30.24F
$$

WIZ022-050-052-281000-
EAST CENTRAL WISCONSIN

CITY           SKY/WX    TMP DP  RH WIND       PRES   REMARKS
STURGEON BAY   MOCLDY    18  12  79 S3        30.26S
MANITOWOC      PTCLDY    17  14  88 CALM      30.27R
SHEBOYGAN      PTCLDY    18  16  92 CALM      30.26R
$$

LMZ563-521-522-541>543-281000-
LAKESHORE

STATION/POSITION TIME  TEMP    WIND        PRES    VSBY  WAVE
                       AIR SEA DIR/SP/G                  HT/PER
                 (UTC) (F)     (DEG/KT/KT) (MB)    (MI)  (FT/S)
SHEBOYGAN LKSHOR 0900   26     230/  1/  1 1026.2R
KEWAUNEE LKSHORE 0900   22     270/  1/  3 1023.5F
NORTHPORT PIER   0900   17     200/  1/  5 1024.0F
SISTER BAY LKSHO 0900   19        CALM       N/A
CHAMBERS ISLAND  0900   18     170/  3/  5 1024.0F
MENOMINEE LKSHOR 0900   17     170/  6     1024.6S
$$


USA.gov is the U.S. government's official web portal to all federal, state and local government web resources and services.